Tracking 30105 objects as of 25-Jan-2025
HD Live streaming from Space Station
objects crossing your sky now

STARLINK-30242

Track STARLINK-30242 now!
10-day predictions
STARLINK-30242 is classified as:


NORAD ID: 57739
Int'l Code: 2023-131H
Perigee: 565.4 km
Apogee: 567.0 km
Inclination: 43.0 °
Period: 95.8 minutes
Semi major axis: 6937 km
RCS: Unknown
Launch date: September 1, 2023
Source: United States (US)
Launch site: AIR FORCE EASTERN TEST RANGE (AFETR)
Your satellite tracking list
Your tracking list is empty




NASA's NSSDC Master Catalog

Two Line Element Set (TLE):
1 57739U 23131H   25024.74420092  .00001523  00000-0  12774-3 0  9997
2 57739  43.0006 208.5265 0001118 269.4787  90.5928 15.02544847 78703
Source of the keplerian elements: AFSPC